When you browse on this site, cookies collect data to enhance your experience and personalize the content and advertising you see.
Visit our Privacy Policy to learn more. By continuing to use the site, you agree to this use of cookies and data.
  • en Suisse
  • Liste des pays
  • À 7 jours
  • Température de l'eau
  • Carte satellitaire
  • Carte météo
  • Widgets météo
  • user-avatar
    Se connecter

    Météo par heure à Volklingen

    Ce jour, 18 Juillet, Jeudi

    Heure Température Précipitation Vent Pression Humidité
    00:00 +15°C° 0 mm 0 m/s 738 mmHg 78%
    01:00 +14°C° 0 mm 0 m/s 738 mmHg 79%
    02:00 +14°C° 0 mm 0 m/s 738 mmHg 81%
    03:00 +14°C° 0 mm 0 m/s 738 mmHg 82%
    04:00 +16°C° 0 mm 1 m/s 738 mmHg 79%
    05:00 +18°C° 0 mm 1 m/s 738 mmHg 76%
    06:00 +19°C° 0 mm 1 m/s 738 mmHg 72%
    07:00 +21°C° 0 mm 1 m/s 738 mmHg 65%
    08:00 +23°C° 0 mm 1 m/s 738 mmHg 57%
    09:00 +25°C° 0 mm 2 m/s 739 mmHg 50%
    10:00 +26°C° 0 mm 2 m/s 738 mmHg 48%
    11:00 +26°C° 0 mm 2 m/s 738 mmHg 45%
    12:00 +27°C° 0 mm 3 m/s 738 mmHg 43%
    13:00 +27°C° 0 mm 3 m/s 738 mmHg 45%
    14:00 +27°C° 0 mm 3 m/s 738 mmHg 47%
    15:00 +27°C° 0 mm 3 m/s 738 mmHg 49%
    16:00 +25°C° 0.4 mm 3 m/s 738 mmHg 58%
    17:00 +24°C° 0.4 mm 3 m/s 738 mmHg 67%
    18:00 +21°C° 0.4 mm 3 m/s 738 mmHg 76%
    19:00 +20°C° 0 mm 2 m/s 738 mmHg 78%
    20:00 +18°C° 0 mm 2 m/s 738 mmHg 80%
    21:00 +18°C° 0 mm 1 m/s 739 mmHg 82%
    22:00 +18°C° 0 mm 1 m/s 739 mmHg 83%
    23:00 +16°C° 0 mm 1 m/s 739 mmHg 83%

    Demain, 19 Juillet, Vendredi

    Heure Température Précipitation Vent Pression Humidité
    00:00 +16°C° 0 mm 1 m/s 739 mmHg 84%
    01:00 +16°C° 0 mm 1 m/s 739 mmHg 85%
    02:00 +16°C° 0 mm 1 m/s 739 mmHg 87%
    03:00 +16°C° 0 mm 1 m/s 739 mmHg 89%
    04:00 +16°C° 0 mm 1 m/s 739 mmHg 88%
    05:00 +17°C° 0 mm 2 m/s 739 mmHg 87%
    06:00 +18°C° 0 mm 2 m/s 740 mmHg 85%
    07:00 +19°C° 0.2 mm 2 m/s 740 mmHg 80%
    08:00 +21°C° 0.2 mm 3 m/s 740 mmHg 75%
    09:00 +22°C° 0.2 mm 3 m/s 740 mmHg 70%
    10:00 +22°C° 0.5 mm 3 m/s 740 mmHg 72%
    11:00 +22°C° 0.5 mm 3 m/s 740 mmHg 73%
    12:00 +22°C° 0.5 mm 3 m/s 740 mmHg 75%
    13:00 +24°C° 0.1 mm 3 m/s 740 mmHg 72%
    14:00 +24°C° 0.1 mm 3 m/s 739 mmHg 68%
    15:00 +25°C° 0.1 mm 3 m/s 739 mmHg 64%
    16:00 +24°C° 0 mm 3 m/s 739 mmHg 67%
    17:00 +24°C° 0 mm 2 m/s 739 mmHg 69%
    18:00 +24°C° 0 mm 1 m/s 739 mmHg 71%
    19:00 +22°C° 0 mm 1 m/s 739 mmHg 76%
    20:00 +19°C° 0 mm 0 m/s 740 mmHg 81%
    21:00 +17°C° 0 mm 0 m/s 740 mmHg 86%
    22:00 +17°C° 0 mm 0 m/s 739 mmHg 87%
    23:00 +16°C° 0 mm 0 m/s 739 mmHg 88%

    Après-demain, 20 Juillet, Samedi

    Heure Température Précipitation Vent Pression Humidité
    00:00 +16°C° 0 mm 0 m/s 739 mmHg 89%
    01:00 +16°C° 0 mm 0 m/s 739 mmHg 90%
    02:00 +15°C° 0 mm 0 m/s 739 mmHg 90%
    03:00 +15°C° 0 mm 0 m/s 738 mmHg 91%
    04:00 +18°C° 0 mm 1 m/s 738 mmHg 88%
    05:00 +19°C° 0 mm 1 m/s 738 mmHg 86%
    06:00 +20°C° 0 mm 1 m/s 738 mmHg 83%
    07:00 +21°C° 0 mm 2 m/s 739 mmHg 74%
    08:00 +24°C° 0 mm 2 m/s 739 mmHg 65%
    09:00 +26°C° 0 mm 3 m/s 739 mmHg 56%
    10:00 +28°C° 0 mm 3 m/s 739 mmHg 52%
    11:00 +29°C° 0 mm 4 m/s 739 mmHg 48%
    12:00 +30°C° 0 mm 4 m/s 739 mmHg 44%
    13:00 +30°C° 0 mm 5 m/s 739 mmHg 44%
    14:00 +30°C° 0 mm 5 m/s 739 mmHg 45%
    15:00 +30°C° 0 mm 6 m/s 738 mmHg 45%
    16:00 +30°C° 0 mm 5 m/s 738 mmHg 49%
    17:00 +29°C° 0 mm 4 m/s 739 mmHg 52%
    18:00 +28°C° 0 mm 3 m/s 739 mmHg 56%
    19:00 +26°C° 0.1 mm 3 m/s 739 mmHg 63%
    20:00 +22°C° 0.1 mm 3 m/s 740 mmHg 71%
    21:00 +20°C° 0.1 mm 3 m/s 740 mmHg 78%
    22:00 +20°C° 0 mm 2 m/s 740 mmHg 81%
    23:00 +19°C° 0 mm 2 m/s 741 mmHg 84%

    21 Juillet, Dimanche

    Heure Température Précipitation Vent Pression Humidité
    00:00 +19°C° 0 mm 1 m/s 741 mmHg 88%
    01:00 +19°C° 0 mm 1 m/s 741 mmHg 87%
    02:00 +18°C° 0 mm 1 m/s 741 mmHg 87%
    03:00 +16°C° 0 mm 0 m/s 742 mmHg 87%
    04:00 +17°C° 0 mm 0 m/s 742 mmHg 84%
    05:00 +18°C° 0 mm 0 m/s 743 mmHg 82%
    06:00 +19°C° 0 mm 0 m/s 743 mmHg 79%
    07:00 +22°C° 0 mm 1 m/s 743 mmHg 73%
    08:00 +24°C° 0 mm 1 m/s 744 mmHg 66%
    09:00 +26°C° 0 mm 2 m/s 744 mmHg 59%
    10:00 +27°C° 0 mm 2 m/s 744 mmHg 53%
    11:00 +28°C° 0 mm 3 m/s 744 mmHg 48%
    12:00 +29°C° 0 mm 3 m/s 744 mmHg 42%
    13:00 +29°C° 0 mm 3 m/s 744 mmHg 41%
    14:00 +29°C° 0 mm 3 m/s 744 mmHg 41%
    15:00 +30°C° 0 mm 3 m/s 743 mmHg 40%
    16:00 +28°C° 0 mm 3 m/s 743 mmHg 46%
    17:00 +27°C° 0 mm 3 m/s 743 mmHg 51%
    18:00 +26°C° 0 mm 2 m/s 743 mmHg 57%
    19:00 +24°C° 0 mm 2 m/s 743 mmHg 63%
    20:00 +21°C° 0 mm 2 m/s 744 mmHg 70%
    21:00 +19°C° 0 mm 2 m/s 744 mmHg 76%
    22:00 +20°C° 0 mm 1 m/s 744 mmHg 79%
    23:00 +19°C° 0 mm 1 m/s 744 mmHg 82%

    22 Juillet, Lundi

    Heure Température Précipitation Vent Pression Humidité
    00:00 +18°C° 0 mm 1 m/s 744 mmHg 84%
    01:00 +18°C° 0 mm 1 m/s 744 mmHg 85%
    02:00 +18°C° 0 mm 1 m/s 744 mmHg 85%
    03:00 +16°C° 0 mm 1 m/s 744 mmHg 85%
    04:00 +18°C° 0 mm 1 m/s 744 mmHg 81%
    05:00 +19°C° 0 mm 1 m/s 744 mmHg 76%
    06:00 +20°C° 0 mm 1 m/s 744 mmHg 72%
    07:00 +23°C° 0 mm 1 m/s 744 mmHg 65%
    08:00 +25°C° 0 mm 1 m/s 744 mmHg 59%
    09:00 +27°C° 0 mm 2 m/s 744 mmHg 52%
    10:00 +29°C° 0 mm 1 m/s 744 mmHg 47%
    11:00 +30°C° 0 mm 1 m/s 744 mmHg 42%
    12:00 +30°C° 0 mm 0 m/s 744 mmHg 37%
    13:00 +32°C° 0 mm 1 m/s 744 mmHg 35%
    14:00 +32°C° 0 mm 1 m/s 744 mmHg 34%
    15:00 +32°C° 0 mm 1 m/s 743 mmHg 33%
    16:00 +31°C° 0 mm 2 m/s 743 mmHg 40%
    17:00 +29°C° 0 mm 2 m/s 743 mmHg 47%
    18:00 +28°C° 0 mm 2 m/s 743 mmHg 55%
    19:00 +26°C° 0 mm 2 m/s 743 mmHg 59%
    20:00 +24°C° 0 mm 2 m/s 743 mmHg 63%
    21:00 +22°C° 0 mm 1 m/s 743 mmHg 66%
    22:00 +22°C° 0 mm 1 m/s 743 mmHg 66%
    23:00 +20°C° 0 mm 2 m/s 743 mmHg 66%

    23 Juillet, Mardi

    Heure Température Précipitation Vent Pression Humidité
    00:00 +20°C° 0 mm 2 m/s 743 mmHg 66%
    01:00 +19°C° 0 mm 2 m/s 743 mmHg 68%
    02:00 +19°C° 0 mm 2 m/s 743 mmHg 71%
    03:00 +19°C° 0 mm 2 m/s 742 mmHg 73%
    04:00 +20°C° 0 mm 2 m/s 743 mmHg 72%
    05:00 +20°C° 0 mm 2 m/s 743 mmHg 70%
    06:00 +21°C° 0 mm 3 m/s 743 mmHg 69%
    07:00 +24°C° 0 mm 3 m/s 743 mmHg 63%
    08:00 +26°C° 0 mm 3 m/s 743 mmHg 57%
    09:00 +28°C° 0 mm 4 m/s 743 mmHg 51%
    10:00 +29°C° 0 mm 3 m/s 743 mmHg 47%
    11:00 +31°C° 0 mm 3 m/s 742 mmHg 43%
    12:00 +33°C° 0 mm 3 m/s 742 mmHg 39%
    13:00 +33°C° 0 mm 3 m/s 742 mmHg 39%
    14:00 +33°C° 0 mm 3 m/s 742 mmHg 38%
    15:00 +34°C° 0 mm 3 m/s 741 mmHg 37%
    16:00 +31°C° 0 mm 3 m/s 741 mmHg 43%
    17:00 +30°C° 0 mm 3 m/s 741 mmHg 49%
    18:00 +29°C° 0 mm 3 m/s 741 mmHg 55%
    19:00 +27°C° 0 mm 3 m/s 741 mmHg 58%
    20:00 +26°C° 0 mm 3 m/s 741 mmHg 62%
    21:00 +24°C° 0 mm 3 m/s 741 mmHg 65%
    22:00 +22°C° 0 mm 3 m/s 741 mmHg 64%
    23:00 +22°C° 0 mm 3 m/s 741 mmHg 63%
    Voir plus